sat.trackr.live / text

‹ back to catalog

QIANFAN-148

NORAD 69107 · 2026-108D

PAYLOAD ACTIVE UNKNOWN

§ Identity

Operator
Country
PRC
Launch date
2026-05-17
Launch site
WSC
Launch vehicle
Mass (kg)
RCS (m²)

External: N2YO · Heavens-Above · Gunter

§ Orbital elements

Epoch: 2026-09-20T03:41:40.568064Z

Period
106.59 min
Inclination
89.0189°
Eccentricity
0.0002015
Mean motion
13.51024698 rev/d
Perigee alt
1,067.0 km
Apogee alt
1,070.0 km
Semi-major
7,446.6 km
B*
1.8367e-4
RAAN
12.5629°
Arg perigee
109.8313°
Mean anomaly
250.3056°
Rev number
1,725

§ Raw data

QIANFAN-1481 69107U 26108D   26263.15394176  .00000131  00000+0  18367-3 0  99972 69107  89.0189  12.5629 0002015 109.8313 250.3056 13.51024698 17253

JSON: /api/v1/satellites/69107 · /tle

For live sub-satellite position, see the globe view (requires WebGL).

§ Visibility from observer

Set your observer location to see the next 7 days of passes ≥ 10°. The values pass through the URL so the page stays shareable.

No JS? Fill the form by hand. The geolocation button needs JavaScript.